[[{"header":{"parameterUnit":"m.s-1","parameterCategory":2,"la1":30.2991,"la2":30.254,"lo1":-89.0895,"lo2":-89.0444,"dy":0.0017,"dx":0.0017,"nx":28,"ny":28,"refTime":"2023-10-02T09:00:00:Z","depth":"0","parameterNumber":2,"parameterNumberName":"U-component_of_CURRENTS"},"data":[0,0,0,0,0,0,0,0,0,0,0,0,0,0,0,0,0,0,0,0,0,0,0,0,0,0,0,0,0,0,0,0,0,0,0,0,0,0,0,0,0,0,0,0,0,0,0,0,0,0,0,0,0,0,0,0,0,0,-0.2788,-0.279,0,-0.2898,-0.2898,-0.2899,-0.2789,-0.2785,-0.2782,-0.2779,-0.2658,-0.2658,-0.2658,0,0,0,0,0,0,0,0,0,0,0,0,0,-0.254,-0.2544,-0.2788,-0.279,-0.2792,-0.2898,-0.2898,-0.2899,-0.279,-0.2785,-0.2781,-0.2777,-0.2658,-0.2658,-0.2658,0,0,0,0,0,0,0,0,0,0,0,0,0,-0.264,-0.2545,-0.2788,-0.2757,-0.2756,-0.2898,-0.2898,-0.2899,-0.2791,-0.2785,-0.278,-0.2775,-0.2658,-0.2658,-0.2658,-0.2765,0,0,-0.2659,-0.2659,0,0,0,0,0,0,0,0,-0.2635,-0.2648,-0.2759,-0.2759,-0.2758,-0.2832,-0.2768,-0.2846,-0.2792,-0.2768,-0.2779,-0.2772,-0.2705,-0.2701,-0.2724,-0.2759,-0.2754,-0.2659,-0.2659,-0.2659,-0.2659,0,0,0,0,0,0,0,-0.2628,-0.2643,-0.2823,-0.2762,-0.2762,-0.2758,-0.2764,-0.2782,-0.2754,-0.277,-0.2764,-0.2792,-0.2701,-0.2724,-0.272,-0.2752,-0.2659,-0.2659,-0.2659,-0.2659,-0.2754,-0.2756,0,0,0,0,0,0,-0.2636,-0.2638,-0.2819,-0.2827,-0.2692,-0.2767,-0.2774,-0.2807,-0.2758,-0.275,-0.2797,-0.2787,-0.2727,-0.272,-0.2715,-0.2701,-0.2659,-0.2659,-0.2659,-0.2752,-0.2755,-0.2757,0,0,0,0,0,0,-0.263,-0.2651,-0.2815,-0.274,-0.2762,-0.2777,-0.2814,-0.2812,-0.2813,-0.2783,-0.2767,-0.2798,-0.2722,-0.2715,-0.2731,-0.2699,-0.2659,-0.2659,-0.2749,-0.2753,-0.2756,-0.276,0,0,0,0,0,0,-0.2623,-0.2649,-0.2666,-0.2742,-0.2767,-0.2893,-0.282,-0.2818,-0.2844,-0.2831,-0.2781,-0.2765,-0.2718,-0.2731,-0.2731,-0.2699,-0.2659,-0.2746,-0.275,-0.2755,-0.2757,-0.2763,-0.2769,0,0,0,0,0,-0.2613,-0.2658,-0.2667,-0.2689,-0.2794,-0.2896,-0.2908,-0.2894,-0.2849,-0.287,-0.2838,-0.2765,-0.2758,-0.2736,-0.2734,-0.27,-0.2743,-0.2749,-0.2754,-0.2754,-0.2762,-0.2769,0,0,0,0,0,0,-0.2553,-0.2655,-0.2664,-0.2735,-0.281,-0.288,-0.2906,-0.2909,-0.2909,-0.2878,-0.2822,-0.2809,-0.2803,-0.2789,-0.2765,-0.275,-0.273,-0.2736,-0.273,-0.2738,-0.2744,-0.268,-0.2659,0,0,0,0,0,-0.2561,-0.2614,-0.2715,-0.277,-0.2812,-0.2864,-0.2899,-0.2904,-0.2928,-0.292,-0.2895,-0.2863,-0.284,-0.2816,-0.2813,-0.2828,-0.2796,-0.2805,-0.2811,-0.2815,-0.277,-0.2743,-0.274,-0.2775,-0.2775,-0.2775,0,0,-0.2553,-0.2617,-0.2645,-0.2761,-0.2811,-0.2859,-0.2868,-0.2936,-0.2931,-0.2912,-0.2893,-0.2898,-0.2858,-0.2853,-0.2846,-0.2822,-0.2801,-0.2822,-0.2825,-0.2776,-0.2748,-0.2744,-0.274,-0.2779,-0.2778,-0.2778,0,0,-0.2567,-0.2628,-0.2674,-0.2737,-0.2834,-0.2868,-0.289,-0.2973,-0.2959,-0.2997,-0.2951,-0.2941,-0.2945,-0.2885,-0.2855,-0.2908,-0.2847,-0.292,-0.2873,-0.285,-0.2844,-0.2839,-0.2827,-0.2821,-0.2905,-0.2905,-0.2905,0,-0.2548,-0.2609,-0.2704,-0.2758,-0.2784,-0.2864,-0.2892,-0.292,-0.2985,-0.2974,-0.298,-0.2963,-0.2934,-0.287,-0.2872,-0.2905,-0.2902,-0.2836,-0.285,-0.2844,-0.2838,-0.2827,-0.2819,-0.2906,-0.2906,-0.2906,-0.2906,0,-0.2595,-0.2628,-0.2665,-0.2735,-0.2786,-0.2836,-0.2894,-0.2926,-0.2932,-0.2947,-0.2937,-0.2939,-0.2906,-0.291,-0.2892,-0.284,-0.2857,-0.287,-0.2813,-0.2834,-0.2823,-0.2815,-0.2907,-0.2907,-0.2907,-0.2906,0,0,-0.2569,-0.267,-0.2673,-0.268,-0.2766,-0.2815,-0.2821,-0.285,-0.2838,-0.2886,-0.2856,-0.2828,-0.2847,-0.2816,-0.2815,-0.2783,-0.2755,-0.2804,-0.2803,-0.2758,-0.272,-0.2655,-0.264,-0.278,-0.2778,-0.2776,-0.2739,0,-0.2555,-0.2608,-0.2664,-0.2677,-0.2698,-0.2755,-0.2756,-0.2789,-0.2813,-0.2824,-0.2808,-0.2799,-0.2804,-0.2802,-0.277,-0.2773,-0.273,-0.2763,-0.2733,-0.2731,-0.2642,-0.2626,-0.2519,-0.2469,-0.273,-0.2729,-0.2728,0,-0.2556,-0.2585,-0.2593,-0.2621,-0.264,-0.2655,-0.2663,-0.2683,-0.2709,-0.2732,-0.2724,-0.2748,-0.2704,-0.2726,-0.2677,-0.2711,-0.269,-0.2689,-0.2688,-0.26,-0.2649,-0.2488,-0.2444,-0.2431,-0.2715,-0.2716,-0.2717,0,-0.2459,-0.2518,-0.2503,-0.252,-0.2584,-0.2578,-0.2601,-0.2638,-0.2653,-0.267,-0.2697,-0.2673,-0.2675,-0.2646,-0.2643,-0.2666,-0.2604,-0.264,-0.2551,-0.2549,-0.2428,-0.2417,-0.2321,-0.2564,-0.2564,-0.2564,-0.2564,0,-0.2396,-0.2387,-0.2459,-0.2454,-0.2443,-0.2509,-0.2503,-0.2534,-0.258,-0.2587,-0.2638,-0.2639,-0.2657,-0.2645,-0.2626,-0.2558,-0.2585,-0.2506,-0.2514,-0.2435,-0.2426,-0.2385,-0.2412,-0.2562,-0.2563,-0.2563,-0.2563,0,-0.2288,-0.2333,-0.233,-0.2382,-0.2396,-0.2388,-0.2456,-0.2459,-0.2524,-0.2536,-0.2543,-0.2611,-0.2592,-0.2599,-0.2563,-0.2531,-0.2428,-0.2438,-0.2349,-0.2343,-0.2239,-0.2271,-0.2151,-0.2094,-0.2328,-0.2326,-0.2324,0,-0.2231,-0.2217,-0.2266,-0.2261,-0.2279,-0.2297,-0.2306,-0.2397,-0.2416,-0.2503,-0.2496,-0.2518,-0.2497,-0.2447,-0.2387,-0.2319,-0.233,-0.219,-0.218,-0.2173,-0.2218,-0.2248,-0.2212,-0.2052,-0.2048,-0.2045,-0.2042,0,-0.2109,-0.2133,-0.2134,-0.2134,-0.2138,-0.2165,-0.2194,-0.2219,-0.2315,-0.2348,-0.2371,-0.2366,-0.2335,-0.2231,-0.2167,-0.2114,-0.2131,-0.2121,-0.2127,-0.1973,-0.1983,-0.1954,-0.2166,-0.2014,-0.2017,-0.2019,-0.202,-0.2022,-0.2006,-0.1985,-0.1989,-0.1982,-0.1996,-0.2005,-0.1978,-0.2043,-0.2068,-0.2082,-0.2175,-0.2127,-0.2106,-0.1997,-0.1953,-0.1846,-0.1907,-0.1796,-0.1834,-0.1866,-0.179,-0.1933,-0.1785,-0.1787,-0.1788,-0.1789,-0.179,0,-0.1859,-0.1849,-0.1834,-0.182,-0.1786,-0.1848,-0.1872,-0.1828,-0.1807,-0.1864,-0.1858,-0.1834,-0.1748,-0.1747,-0.1666,-0.1592,-0.1569,-0.1564,-0.1584,-0.156,-0.168,-0.1645,-0.1443,-0.1443,-0.1443,-0.1443,-0.1443,-0.1443,-0.1776,-0.1707,-0.1709,-0.1606,-0.1597,-0.1509,-0.1493,-0.1463,-0.1476,-0.1433,-0.1437,-0.1475,-0.1521,-0.1641,-0.156,-0.1487,-0.1473,-0.1409,-0.1457,-0.1563,-0.1589,-0.1613,-0.1585,-0.1373,-0.1373,-0.127,-0.1269,-0.1269]},{"header":{"parameterUnit":"m.s-1","parameterCategory":2,"la1":30.2991,"la2":30.254,"lo1":-89.0895,"lo2":-89.0444,"dy":0.0017,"dx":0.0017,"nx":28,"ny":28,"refTime":"2023-10-02T09:00:00:Z","depth":"0","parameterNumber":3,"parameterNumberName":"V-component_of_CURRENTS"},"data":[0,0,0,0,0,0,0,0,0,0,0,0,0,0,0,0,0,0,0,0,0,0,0,0,0,0,0,0,0,0,0,0,0,0,0,0,0,0,0,0,0,0,0,0,0,0,0,0,0,0,0,0,0,0,0,0,0,0,-0.022,-0.0219,0,-0.0121,-0.012,-0.0118,-0.0053,-0.0053,-0.0052,-0.0052,0.0069,0.0072,0.0075,0,0,0,0,0,0,0,0,0,0,0,0,0,-0.0266,-0.0266,-0.022,-0.0219,-0.0218,-0.0121,-0.012,-0.0118,-0.0053,-0.0053,-0.0052,-0.0052,0.0068,0.0072,0.0075,0,0,0,0,0,0,0,0,0,0,0,0,0,-0.0213,-0.0266,-0.022,-0.0175,-0.017,-0.0121,-0.0119,-0.0118,-0.0053,-0.0053,-0.0052,-0.0052,0.0067,0.0071,0.0076,0.0096,0,0,0.0089,0.0091,0,0,0,0,0,0,0,0,-0.0216,-0.0211,-0.0183,-0.0178,-0.0172,-0.01,-0.0091,-0.0046,-0.0053,-0.0095,-0.0052,-0.0052,0.0013,0.0022,0.0042,0.0101,0.0107,0.009,0.0093,0.0095,0.0096,0,0,0,0,0,0,0,-0.022,-0.0214,-0.0179,-0.0182,-0.0175,-0.013,-0.0123,-0.0082,-0.0043,-0.0092,-0.0087,-0.0079,0.0016,0.0038,0.0045,0.0108,0.009,0.0094,0.0097,0.0098,0.0233,0.0234,0,0,0,0,0,0,-0.0241,-0.0219,-0.0182,-0.0176,-0.0196,-0.013,-0.0122,-0.0122,-0.0043,-0.0032,-0.008,-0.0077,0.003,0.004,0.005,0.0091,0.0095,0.0099,0.0101,0.0233,0.0234,0.0235,0,0,0,0,0,0,-0.0243,-0.0239,-0.0186,-0.0196,-0.0186,-0.0131,-0.0131,-0.0121,-0.01,-0.0035,-0.0022,-0.0071,0.003,0.0044,0.0095,0.0096,0.0101,0.0105,0.0232,0.0233,0.0234,0.0166,0,0,0,0,0,0,-0.0245,-0.024,-0.0252,-0.0198,-0.0186,-0.0167,-0.0131,-0.0119,-0.0097,-0.0092,-0.0023,-0.0012,0.0032,0.0088,0.0099,0.0102,0.0108,0.023,0.0232,0.0234,0.0167,0.0165,0.0163,0,0,0,0,0,-0.0247,-0.0274,-0.0253,-0.0249,-0.0203,-0.0168,-0.0158,-0.0115,-0.0098,-0.0094,-0.0037,-0.0014,0.0107,0.0092,0.0105,0.011,0.023,0.0232,0.0234,0.0168,0.0165,0.0163,0,0,0,0,0,0,-0.0307,-0.0268,-0.0245,-0.026,-0.0219,-0.0158,-0.0159,-0.0122,-0.0074,-0.0071,-0.0004,0.0012,0.0056,0.0097,0.0079,0.0157,0.0173,0.0178,0.0119,0.0116,0.0114,0.0095,0.0112,0,0,0,0,0,-0.0325,-0.0333,-0.0278,-0.0291,-0.0276,-0.0216,-0.0198,-0.0164,-0.0114,-0.0093,-0.004,0.002,0.0076,0.0105,0.0155,0.0195,0.0232,0.021,0.0207,0.0205,0.0201,0.0257,0.0259,0.0241,0.0241,0.0241,0,0,-0.0352,-0.0333,-0.0337,-0.0304,-0.0272,-0.025,-0.0205,-0.0185,-0.0157,-0.0088,-0.0045,0.0009,0.0085,0.0132,0.0156,0.0165,0.0232,0.0208,0.0205,0.0202,0.026,0.0261,0.0262,0.0243,0.0242,0.0242,0,0,-0.0409,-0.0394,-0.0412,-0.0379,-0.0336,-0.0291,-0.0288,-0.0225,-0.019,-0.0139,-0.0078,-0.0021,0.0056,0.0117,0.0157,0.0175,0.0215,0.019,0.0166,0.022,0.0222,0.0223,0.0271,0.0278,0.0192,0.0192,0.0192,0,-0.0443,-0.0449,-0.0411,-0.0409,-0.0384,-0.0313,-0.0307,-0.0261,-0.0185,-0.0153,-0.0137,-0.0006,0.0052,0.0126,0.0137,0.0167,0.0201,0.0163,0.0214,0.0217,0.022,0.0269,0.0277,0.0189,0.019,0.019,0.019,0,-0.05,-0.0493,-0.0503,-0.047,-0.044,-0.0426,-0.0352,-0.0317,-0.0266,-0.0209,-0.0135,-0.0051,0.0028,0.0058,0.0104,0.0159,0.0178,0.0198,0.0211,0.0217,0.0269,0.0279,0.0185,0.0186,0.0187,0.0188,0,0,-0.0594,-0.0551,-0.0549,-0.0531,-0.0465,-0.0445,-0.0403,-0.0335,-0.0305,-0.0228,-0.018,-0.0078,-0.0033,0.0016,0.0082,0.0135,0.0186,0.0168,0.0172,0.0198,0.0302,0.0345,0.036,0.0209,0.0211,0.0212,0.0329,0,-0.064,-0.0646,-0.0606,-0.059,-0.0577,-0.0497,-0.0463,-0.0393,-0.0324,-0.0263,-0.0164,-0.0099,-0.0047,-0.0011,0.0049,0.0155,0.0208,0.0152,0.0308,0.0313,0.0336,0.0372,0.0406,0.0516,0.0338,0.034,0.0341,0,-0.0697,-0.0687,-0.0687,-0.063,-0.0619,-0.0602,-0.0527,-0.0484,-0.0379,-0.0328,-0.0245,-0.0165,-0.0062,-0.003,0.014,0.0099,0.0191,0.0267,0.0274,0.0344,0.0374,0.0486,0.0541,0.0667,0.0356,0.0355,0.0354,0,-0.0765,-0.0736,-0.0735,-0.0716,-0.0651,-0.0638,-0.06,-0.051,-0.0471,-0.0369,-0.0335,-0.0203,-0.013,-0.0008,0.0161,0.0149,0.0342,0.0348,0.0474,0.0478,0.0555,0.0563,0.0737,0.0459,0.0458,0.0458,0.0458,0,-0.0815,-0.0809,-0.0771,-0.0769,-0.0769,-0.0702,-0.0686,-0.0627,-0.0546,-0.0497,-0.0381,-0.031,-0.0123,0.0018,0.0151,0.0351,0.034,0.0479,0.0517,0.0533,0.0538,0.069,0.0731,0.0462,0.0461,0.0461,0.046,0,-0.0873,-0.0847,-0.0846,-0.0807,-0.08,-0.0801,-0.0753,-0.0735,-0.0655,-0.0588,-0.0559,-0.0378,-0.0183,0.0006,0.0234,0.0348,0.0614,0.0595,0.06,0.0636,0.0855,0.089,0.109,0.1177,0.0746,0.0748,0.075,0,-0.0897,-0.0906,-0.0894,-0.0904,-0.089,-0.0882,-0.0876,-0.0801,-0.077,-0.0618,-0.0587,-0.0384,-0.0206,0.0137,0.038,0.0631,0.0719,0.0788,0.0775,0.0887,0.0954,0.0967,0.1027,0.0852,0.0855,0.0857,0.0858,0,-0.0941,-0.0943,-0.0945,-0.0972,-0.0981,-0.0983,-0.0962,-0.0953,-0.0844,-0.0756,-0.0584,-0.0426,-0.0073,0.0263,0.0577,0.0714,0.0885,0.0834,0.0961,0.1065,0.1082,0.1177,0.0746,0.0875,0.0873,0.0872,0.0871,0.087,-0.0972,-0.0991,-0.1002,-0.1026,-0.1047,-0.106,-0.1048,-0.0989,-0.0913,-0.0731,-0.0584,-0.0288,0.0155,0.0626,0.0786,0.1106,0.1055,0.1184,0.1222,0.1228,0.1307,0.0907,0.1067,0.1066,0.1066,0.1065,0.1065,0,-0.0994,-0.1014,-0.1048,-0.1072,-0.1105,-0.1099,-0.1079,-0.1021,-0.0901,-0.0692,-0.0475,0.0061,0.05,0.0882,0.1331,0.1489,0.1518,0.1548,0.1582,0.1629,0.1298,0.1296,0.1501,0.15,0.15,0.15,0.15,0.15,-0.1,-0.1034,-0.1051,-0.1106,-0.1126,-0.1123,-0.1102,-0.0978,-0.0813,-0.0444,-0.011,0.0152,0.0677,0.14,0.1809,0.1829,0.197,0.1934,0.2019,0.1787,0.1755,0.1725,0.1736,0.2029,0.203,0.2343,0.2346,0.2348]}],[{"header":{"parameterUnit":"m.s-1","parameterCategory":2,"la1":30.2991,"la2":30.254,"lo1":-89.0895,"lo2":-89.0444,"dy":0.0017,"dx":0.0017,"nx":28,"ny":28,"refTime":"2023-10-02T09:00:00:Z","depth":"2","parameterNumber":2,"parameterNumberName":"U-component_of_CURRENTS"},"data":[0,0,0,0,0,0,0,0,0,0,0,0,0,0,0,0,0,0,0,0,0,0,0,0,0,0,0,0,0,0,0,0,0,0,0,0,0,0,0,0,0,0,0,0,0,0,0,0,0,0,0,0,0,0,0,0,0,0,-0.2418,-0.2419,0,-0.2467,-0.2468,-0.2468,-0.2399,-0.2397,-0.2395,-0.2394,-0.2334,-0.2335,-0.2335,0,0,0,0,0,0,0,0,0,0,0,0,0,-0.2255,-0.2258,-0.2418,-0.2419,-0.242,-0.2467,-0.2468,-0.2468,-0.24,-0.2397,-0.2395,-0.2393,-0.2334,-0.2335,-0.2335,0,0,0,0,0,0,0,0,0,0,0,0,0,-0.2312,-0.2259,-0.2418,-0.2396,-0.2395,-0.2467,-0.2468,-0.2468,-0.24,-0.2397,-0.2394,-0.2392,-0.2334,-0.2334,-0.2335,-0.2395,0,0,-0.2336,-0.2336,0,0,0,0,0,0,0,0,-0.2309,-0.2318,-0.2398,-0.2398,-0.2397,-0.2429,-0.2389,-0.244,-0.2401,-0.2393,-0.2394,-0.239,-0.2362,-0.236,-0.2369,-0.2392,-0.239,-0.2336,-0.2336,-0.2336,-0.2336,0,0,0,0,0,0,0,-0.2305,-0.2315,-0.2432,-0.24,-0.2399,-0.2381,-0.2385,-0.2398,-0.2387,-0.2393,-0.239,-0.2405,-0.2359,-0.2369,-0.2367,-0.2389,-0.2336,-0.2336,-0.2336,-0.2337,-0.2419,-0.2421,0,0,0,0,0,0,-0.2315,-0.2312,-0.2431,-0.2434,-0.2351,-0.2386,-0.2391,-0.2417,-0.2389,-0.2384,-0.2407,-0.2401,-0.237,-0.2367,-0.2365,-0.2377,-0.2336,-0.2337,-0.2337,-0.2417,-0.242,-0.2422,0,0,0,0,0,0,-0.2311,-0.2325,-0.2429,-0.2377,-0.2389,-0.2393,-0.2422,-0.242,-0.242,-0.2402,-0.2393,-0.2409,-0.2367,-0.2364,-0.2385,-0.2376,-0.2337,-0.2337,-0.2415,-0.2418,-0.2421,-0.2439,0,0,0,0,0,0,-0.2306,-0.2324,-0.2341,-0.2379,-0.2393,-0.2472,-0.2426,-0.2423,-0.2437,-0.2429,-0.2401,-0.2393,-0.2365,-0.2385,-0.2385,-0.2376,-0.2337,-0.2413,-0.2417,-0.242,-0.2436,-0.2442,-0.2448,0,0,0,0,0,-0.2301,-0.2335,-0.2342,-0.2357,-0.2419,-0.2475,-0.248,-0.2468,-0.244,-0.2453,-0.2439,-0.2393,-0.2407,-0.2388,-0.2387,-0.2378,-0.2411,-0.2415,-0.242,-0.2433,-0.2441,-0.2448,0,0,0,0,0,0,-0.2267,-0.2333,-0.2341,-0.2392,-0.2433,-0.2465,-0.2479,-0.2478,-0.2481,-0.2467,-0.2432,-0.2426,-0.2437,-0.2427,-0.2406,-0.2418,-0.2397,-0.2402,-0.2407,-0.2415,-0.242,-0.2374,-0.2338,0,0,0,0,0,-0.2276,-0.2318,-0.2376,-0.2416,-0.2439,-0.2463,-0.2481,-0.2484,-0.2497,-0.2494,-0.2483,-0.247,-0.2463,-0.2453,-0.2458,-0.2476,-0.2445,-0.247,-0.2476,-0.248,-0.2447,-0.2423,-0.2421,-0.2437,-0.2437,-0.2437,0,0,-0.2273,-0.2316,-0.2339,-0.2412,-0.2438,-0.2468,-0.2464,-0.2505,-0.2508,-0.2491,-0.2493,-0.25,-0.2479,-0.2489,-0.2492,-0.2471,-0.2469,-0.2486,-0.2489,-0.2453,-0.2427,-0.2425,-0.2423,-0.244,-0.2439,-0.2439,0,0,-0.2287,-0.2332,-0.2367,-0.2404,-0.2463,-0.2481,-0.2495,-0.2542,-0.2537,-0.2572,-0.2544,-0.2544,-0.2561,-0.2524,-0.2508,-0.2556,-0.2511,-0.2573,-0.2547,-0.2525,-0.2522,-0.2519,-0.2502,-0.2497,-0.2563,-0.2563,-0.2563,0,-0.2276,-0.2324,-0.2384,-0.2422,-0.2435,-0.2483,-0.2501,-0.2523,-0.2566,-0.2561,-0.2572,-0.2574,-0.256,-0.2524,-0.2535,-0.2558,-0.2552,-0.2514,-0.2527,-0.2523,-0.2519,-0.2503,-0.2497,-0.2564,-0.2564,-0.2564,-0.2564,0,-0.2313,-0.2341,-0.2365,-0.2417,-0.2449,-0.2479,-0.252,-0.2548,-0.2559,-0.257,-0.2574,-0.258,-0.2561,-0.2571,-0.256,-0.253,-0.2538,-0.2544,-0.2495,-0.2518,-0.2501,-0.2494,-0.2566,-0.2566,-0.2566,-0.2565,0,0,-0.2293,-0.2371,-0.2372,-0.2379,-0.244,-0.2468,-0.2488,-0.2509,-0.2507,-0.255,-0.2534,-0.253,-0.2538,-0.2521,-0.2519,-0.2495,-0.2475,-0.2508,-0.2506,-0.2466,-0.2438,-0.237,-0.2356,-0.2492,-0.249,-0.2489,-0.2444,0,-0.2284,-0.2326,-0.2371,-0.2384,-0.2395,-0.2439,-0.2451,-0.248,-0.2505,-0.2519,-0.2511,-0.2512,-0.2517,-0.2517,-0.2493,-0.249,-0.2456,-0.2486,-0.2442,-0.244,-0.2355,-0.2344,-0.2182,-0.2122,-0.2437,-0.2436,-0.2435,0,-0.228,-0.2305,-0.2315,-0.2343,-0.2354,-0.2371,-0.2386,-0.241,-0.2439,-0.2461,-0.2461,-0.248,-0.245,-0.2465,-0.2422,-0.2451,-0.2429,-0.2422,-0.242,-0.233,-0.2357,-0.2148,-0.2097,-0.2424,-0.2425,-0.2426,-0.2426,0,-0.2199,-0.2251,-0.2244,-0.2258,-0.2313,-0.2315,-0.234,-0.2378,-0.2396,-0.242,-0.2443,-0.2427,-0.2429,-0.2402,-0.2391,-0.2411,-0.235,-0.2377,-0.2284,-0.2281,-0.2113,-0.2096,-0.2312,-0.2312,-0.2313,-0.2313,-0.2313,0,-0.2144,-0.214,-0.2208,-0.2203,-0.2202,-0.2259,-0.2264,-0.2297,-0.2342,-0.2349,-0.2401,-0.2398,-0.2416,-0.24,-0.2378,-0.2304,-0.2333,-0.2251,-0.2249,-0.2122,-0.2107,-0.2343,-0.2347,-0.2311,-0.2311,-0.2312,-0.2312,0,-0.2046,-0.2091,-0.2092,-0.2144,-0.216,-0.2158,-0.2226,-0.2232,-0.2296,-0.2308,-0.2317,-0.2373,-0.2347,-0.2353,-0.2312,-0.2278,-0.2221,-0.2181,-0.2034,-0.2013,-0.2173,-0.218,-0.2071,-0.2068,-0.2065,-0.2063,-0.2061,0,-0.1996,-0.1985,-0.2037,-0.2036,-0.2056,-0.2081,-0.2092,-0.2179,-0.2197,-0.2273,-0.2262,-0.2279,-0.2246,-0.2186,-0.2121,-0.2049,-0.2131,-0.1871,-0.1855,-0.2131,-0.2141,-0.2152,-0.2161,-0.166,-0.1655,-0.1651,-0.1648,0,-0.1886,-0.1911,-0.1915,-0.1923,-0.1932,-0.196,-0.1991,-0.2012,-0.21,-0.2122,-0.2128,-0.2113,-0.2069,-0.1925,-0.186,-0.1799,-0.1874,-0.1784,-0.2084,-0.1752,-0.174,-0.1753,-0.1776,-0.1611,-0.1615,-0.1618,-0.162,-0.1621,-0.1794,-0.1777,-0.1786,-0.1786,-0.1806,-0.1814,-0.1786,-0.184,-0.1852,-0.1846,-0.1922,-0.1838,-0.1838,-0.1636,-0.1557,-0.1501,-0.1625,-0.1563,-0.1577,-0.1594,-0.156,-0.1545,-0.1373,-0.1375,-0.1377,-0.1379,-0.138,0,-0.1661,-0.1657,-0.1648,-0.1642,-0.1613,-0.1673,-0.1688,-0.1637,-0.1596,-0.1619,-0.159,-0.1424,-0.1334,-0.134,-0.119,-0.1171,-0.117,-0.1133,-0.1134,-0.117,-0.1202,-0.1149,-0.0852,-0.0851,-0.085,-0.0848,0,0,-0.1588,-0.153,-0.1533,-0.1445,-0.1439,-0.1355,-0.1333,-0.1282,-0.1268,-0.1185,-0.114,-0.1224,-0.1274,-0.1056,-0.1016,-0.0907,-0.1028,-0.0861,-0.128,-0.1315,-0.1345,-0.144,-0.1397,0,0,0,0,0]},{"header":{"parameterUnit":"m.s-1","parameterCategory":2,"la1":30.2991,"la2":30.254,"lo1":-89.0895,"lo2":-89.0444,"dy":0.0017,"dx":0.0017,"nx":28,"ny":28,"refTime":"2023-10-02T09:00:00:Z","depth":"2","parameterNumber":3,"parameterNumberName":"V-component_of_CURRENTS"},"data":[0,0,0,0,0,0,0,0,0,0,0,0,0,0,0,0,0,0,0,0,0,0,0,0,0,0,0,0,0,0,0,0,0,0,0,0,0,0,0,0,0,0,0,0,0,0,0,0,0,0,0,0,0,0,0,0,0,0,-0.0227,-0.0227,0,-0.0148,-0.0147,-0.0146,-0.0083,-0.0083,-0.0082,-0.0082,0.0034,0.0037,0.004,0,0,0,0,0,0,0,0,0,0,0,0,0,-0.0262,-0.0262,-0.0228,-0.0227,-0.0226,-0.0149,-0.0147,-0.0146,-0.0083,-0.0083,-0.0082,-0.0082,0.0034,0.0037,0.004,0,0,0,0,0,0,0,0,0,0,0,0,0,-0.022,-0.0262,-0.0228,-0.0187,-0.0182,-0.0149,-0.0147,-0.0146,-0.0083,-0.0083,-0.0082,-0.0081,0.0033,0.0036,0.004,0.0051,0,0,0.0053,0.0054,0,0,0,0,0,0,0,0,-0.0222,-0.0218,-0.0194,-0.0189,-0.0185,-0.0127,-0.0117,-0.0079,-0.0084,-0.0119,-0.0082,-0.0081,-0.0018,-0.001,0.0006,0.0057,0.0062,0.0053,0.0055,0.0057,0.0058,0,0,0,0,0,0,0,-0.0225,-0.0221,-0.0194,-0.0193,-0.0187,-0.0151,-0.0145,-0.0109,-0.0071,-0.0116,-0.0112,-0.0106,-0.0015,0.0002,0.0009,0.0064,0.0053,0.0056,0.0059,0.006,0.0175,0.0176,0,0,0,0,0,0,-0.0243,-0.0224,-0.0197,-0.0192,-0.0204,-0.0151,-0.0144,-0.0144,-0.0072,-0.0061,-0.0107,-0.0103,-0.0005,0.0004,0.0014,0.0053,0.0057,0.0061,0.0063,0.0175,0.0175,0.0176,0,0,0,0,0,0,-0.0244,-0.0241,-0.02,-0.0207,-0.02,-0.0152,-0.0153,-0.0143,-0.0127,-0.0066,-0.0054,-0.0101,-0.0004,0.0008,0.0052,0.0058,0.0063,0.0066,0.0174,0.0175,0.0176,0.0119,0,0,0,0,0,0,-0.0245,-0.0243,-0.0253,-0.0209,-0.02,-0.0189,-0.0153,-0.0142,-0.0126,-0.0121,-0.0057,-0.0045,-0.0003,0.0046,0.0056,0.0063,0.0069,0.0173,0.0174,0.0175,0.012,0.0118,0.0116,0,0,0,0,0,-0.0247,-0.0273,-0.0255,-0.0251,-0.0215,-0.019,-0.0182,-0.0144,-0.0126,-0.0125,-0.0073,-0.0047,0.0061,0.0049,0.0061,0.007,0.0172,0.0174,0.0175,0.0121,0.0118,0.0116,0,0,0,0,0,0,-0.03,-0.0267,-0.0247,-0.0263,-0.023,-0.018,-0.0184,-0.0152,-0.0111,-0.0105,-0.0043,-0.0027,0.0013,0.005,0.0035,0.0109,0.0122,0.0126,0.0077,0.0075,0.0073,0.006,0.0073,0,0,0,0,0,-0.0316,-0.0324,-0.0279,-0.0293,-0.0282,-0.0232,-0.0219,-0.0189,-0.0146,-0.0128,-0.0079,-0.0023,0.0028,0.0056,0.01,0.0137,0.0172,0.0153,0.0151,0.0149,0.0149,0.0204,0.0206,0.0181,0.0181,0.0181,0,0,-0.0341,-0.0326,-0.033,-0.0305,-0.0279,-0.0262,-0.0223,-0.0209,-0.0184,-0.0122,-0.0083,-0.0036,0.0034,0.0078,0.01,0.0111,0.0175,0.0151,0.0148,0.0149,0.0205,0.0208,0.021,0.0182,0.0182,0.0181,0,0,-0.0393,-0.0381,-0.0398,-0.0372,-0.0338,-0.03,-0.0299,-0.0247,-0.0215,-0.0173,-0.0116,-0.0064,0.0005,0.0064,0.0103,0.0117,0.0156,0.0128,0.0115,0.0168,0.017,0.0172,0.0214,0.0221,0.0134,0.0134,0.0134,0,-0.0424,-0.043,-0.04,-0.04,-0.0379,-0.032,-0.0315,-0.0276,-0.0212,-0.0181,-0.017,-0.0051,0.0003,0.0078,0.0087,0.0111,0.0141,0.0114,0.0163,0.0166,0.017,0.0212,0.022,0.0131,0.0132,0.0132,0.0132,0,-0.0477,-0.0471,-0.0482,-0.0454,-0.043,-0.042,-0.0355,-0.0325,-0.028,-0.0228,-0.0159,-0.0084,-0.001,0.0017,0.0058,0.0116,0.0128,0.0145,0.0162,0.0169,0.0214,0.0223,0.0128,0.0129,0.0129,0.013,0,0,-0.0562,-0.0525,-0.0525,-0.0507,-0.0452,-0.0436,-0.0397,-0.0334,-0.0303,-0.0237,-0.0188,-0.0094,-0.0054,-0.0007,0.0052,0.0104,0.0154,0.013,0.0134,0.0159,0.0261,0.0286,0.0299,0.0174,0.0176,0.0177,0.028,0,-0.0605,-0.0611,-0.0576,-0.0562,-0.0551,-0.048,-0.0446,-0.0381,-0.0319,-0.026,-0.0166,-0.0106,-0.0061,-0.0029,0.0031,0.0124,0.0177,0.0124,0.0263,0.0267,0.0278,0.031,0.0277,0.0368,0.0289,0.0291,0.0292,0,-0.0658,-0.0649,-0.065,-0.0594,-0.0585,-0.057,-0.0498,-0.0458,-0.0356,-0.0309,-0.023,-0.0158,-0.0058,-0.0033,0.0124,0.0085,0.0167,0.0234,0.024,0.029,0.031,0.0353,0.0388,0.0308,0.0307,0.0306,0.0305,0,-0.0719,-0.0692,-0.0692,-0.0675,-0.0614,-0.0601,-0.0565,-0.0478,-0.044,-0.0342,-0.0309,-0.0183,-0.0119,-0.0004,0.0143,0.0132,0.0307,0.0314,0.0414,0.0416,0.0432,0.0433,0.042,0.042,0.0419,0.0419,0.0419,0,-0.0765,-0.076,-0.0724,-0.0723,-0.072,-0.0658,-0.0639,-0.0583,-0.0505,-0.0458,-0.0347,-0.0283,-0.011,0.0015,0.0136,0.0308,0.0307,0.0421,0.0452,0.0411,0.0409,0.0391,0.0387,0.0423,0.0422,0.0421,0.0421,0,-0.0819,-0.0795,-0.0794,-0.0756,-0.0749,-0.0748,-0.0701,-0.068,-0.0604,-0.0542,-0.0514,-0.0348,-0.0177,-0.0004,0.0201,0.0303,0.046,0.0519,0.0456,0.0478,0.0532,0.0523,0.064,0.0642,0.0643,0.0645,0.0646,0,-0.0842,-0.085,-0.0838,-0.0846,-0.0834,-0.0824,-0.0815,-0.0742,-0.0711,-0.0574,-0.0545,-0.0367,-0.0214,0.0091,0.0301,0.0523,0.0517,0.0606,0.0589,0.054,0.0558,0.0547,0.0536,0.0585,0.0586,0.0586,0.0587,0,-0.0882,-0.0885,-0.0885,-0.091,-0.0917,-0.0914,-0.0892,-0.0883,-0.0781,-0.0703,-0.0556,-0.0421,-0.0119,0.0143,0.0418,0.0532,0.0567,0.0623,0.0607,0.053,0.0496,0.0511,0.0501,0.059,0.059,0.059,0.059,0.0589,-0.0912,-0.0929,-0.0939,-0.0959,-0.0976,-0.0985,-0.0973,-0.092,-0.0852,-0.0695,-0.057,-0.0327,-0.01,0.032,0.0492,0.0645,0.0648,0.0679,0.0674,0.067,0.0641,0.0611,0.0721,0.0721,0.0722,0.0722,0.0722,0,-0.0933,-0.0951,-0.0981,-0.1001,-0.103,-0.1023,-0.1002,-0.0951,-0.0851,-0.0677,-0.0494,-0.0205,0.0083,0.0313,0.0573,0.0719,0.0687,0.072,0.0655,0.0651,0.0647,0.0613,0.0689,0.0689,0.0689,0.069,0,0,-0.094,-0.0971,-0.0985,-0.1034,-0.1053,-0.1052,-0.1033,-0.0928,-0.0789,-0.0589,-0.039,-0.0156,0.0124,0.0298,0.0467,0.0595,0.0576,0.0589,0.0601,0.0499,0.0493,0.0609,0.0551,0,0,0,0,0]}],[{"header":{"parameterUnit":"m.s-1","parameterCategory":2,"la1":30.2991,"la2":30.254,"lo1":-89.0895,"lo2":-89.0444,"dy":0.0017,"dx":0.0017,"nx":28,"ny":28,"refTime":"2023-10-02T09:00:00:Z","depth":"4","parameterNumber":2,"parameterNumberName":"U-component_of_CURRENTS"},"data":[0,0,0,0,0,0,0,0,0,0,0,0,0,0,0,0,0,0,0,0,0,0,0,0,0,0,0,0,0,0,0,0,0,0,0,0,0,0,0,0,0,0,0,0,0,0,0,0,0,0,0,0,0,0,0,0,0,0,-0.1724,-0.1725,0,-0.1759,-0.1759,-0.1759,-0.1769,-0.1769,-0.177,-0.177,-0.181,-0.1811,-0.1812,0,0,0,0,0,0,0,0,0,0,0,0,0,-0.1611,-0.1613,-0.1724,-0.1725,-0.1726,-0.1759,-0.1759,-0.1759,-0.1769,-0.1769,-0.177,-0.177,-0.181,-0.1811,-0.1812,0,0,0,0,0,0,0,0,0,0,0,0,0,-0.1652,-0.1614,-0.1724,-0.1737,-0.1738,-0.1758,-0.1759,-0.1759,-0.1769,-0.1769,-0.177,-0.177,-0.1809,-0.1811,-0.1812,-0.1819,0,0,-0.1817,-0.1818,0,0,0,0,0,0,0,0,-0.165,-0.1656,-0.1734,-0.1736,-0.1738,-0.1762,-0.1734,-0.178,-0.1769,-0.1755,-0.177,-0.177,-0.1796,-0.1799,-0.1801,-0.1821,-0.1823,-0.1817,-0.1818,-0.1819,-0.1819,0,0,0,0,0,0,0,-0.1647,-0.1654,-0.1735,-0.1735,-0.1737,-0.1721,-0.1727,-0.1742,-0.1773,-0.1756,-0.1758,-0.1766,-0.1797,-0.18,-0.1802,-0.1824,-0.1817,-0.1818,-0.1819,-0.182,-0.1916,-0.1918,0,0,0,0,0,0,-0.1651,-0.1652,-0.1734,-0.1737,-0.1696,-0.1724,-0.173,-0.1752,-0.1772,-0.1776,-0.1765,-0.1766,-0.1797,-0.18,-0.1804,-0.1867,-0.1819,-0.182,-0.1821,-0.1915,-0.1917,-0.1919,0,0,0,0,0,0,-0.1649,-0.1659,-0.1733,-0.1696,-0.1705,-0.1726,-0.175,-0.1753,-0.178,-0.178,-0.1783,-0.1793,-0.1797,-0.1802,-0.1838,-0.1866,-0.1821,-0.1822,-0.1913,-0.1915,-0.1918,-0.1958,0,0,0,0,0,0,-0.1646,-0.1658,-0.1687,-0.1697,-0.1707,-0.1756,-0.175,-0.1753,-0.1785,-0.1786,-0.1804,-0.1807,-0.1798,-0.1836,-0.184,-0.1868,-0.1823,-0.1911,-0.1914,-0.1917,-0.1955,-0.1962,-0.1968,0,0,0,0,0,-0.1642,-0.1674,-0.1689,-0.1699,-0.1743,-0.1757,-0.176,-0.1773,-0.1786,-0.1798,-0.1817,-0.1807,-0.1858,-0.1838,-0.1842,-0.1871,-0.1909,-0.1913,-0.1917,-0.1952,-0.1961,-0.1968,0,0,0,0,0,0,-0.1636,-0.1679,-0.1695,-0.1739,-0.1754,-0.176,-0.1781,-0.1791,-0.1815,-0.1829,-0.1826,-0.183,-0.1871,-0.1871,-0.1849,-0.191,-0.1883,-0.1888,-0.1909,-0.1917,-0.1924,-0.1903,-0.1824,0,0,0,0,0,-0.1651,-0.1693,-0.1715,-0.1752,-0.1765,-0.178,-0.1795,-0.1804,-0.1821,-0.1833,-0.1846,-0.1867,-0.1886,-0.1902,-0.1914,-0.195,-0.1923,-0.1974,-0.198,-0.1986,-0.1973,-0.1956,-0.1958,-0.1931,-0.1931,-0.1931,0,0,-0.166,-0.169,-0.1714,-0.1755,-0.1772,-0.1792,-0.1789,-0.1819,-0.1842,-0.1835,-0.1879,-0.189,-0.1901,-0.1936,-0.1955,-0.1942,-0.1983,-0.199,-0.1995,-0.1979,-0.1959,-0.1962,-0.1964,-0.1933,-0.1933,-0.1932,0,0,-0.168,-0.1726,-0.1759,-0.1777,-0.1812,-0.1821,-0.1837,-0.1859,-0.1878,-0.192,-0.1919,-0.1943,-0.1985,-0.1982,-0.1991,-0.2043,-0.2016,-0.2066,-0.2083,-0.2067,-0.2069,-0.2069,-0.2047,-0.2045,-0.2071,-0.2071,-0.2071,0,-0.1688,-0.173,-0.1767,-0.1794,-0.1809,-0.1838,-0.1857,-0.1885,-0.1917,-0.1927,-0.1944,-0.1988,-0.2,-0.2021,-0.2044,-0.2055,-0.2042,-0.2051,-0.2073,-0.2073,-0.2073,-0.205,-0.2047,-0.2074,-0.2073,-0.2073,-0.2073,0,-0.1717,-0.1757,-0.1776,-0.1825,-0.1848,-0.1869,-0.1904,-0.1937,-0.1971,-0.1985,-0.2024,-0.2039,-0.2055,-0.2076,-0.2081,-0.2095,-0.2084,-0.2078,-0.2045,-0.2077,-0.2052,-0.2049,-0.2077,-0.2076,-0.2076,-0.2075,0,0,-0.1701,-0.178,-0.1787,-0.1806,-0.1861,-0.1876,-0.1929,-0.1958,-0.1986,-0.2029,-0.2048,-0.2091,-0.2092,-0.2101,-0.2108,-0.2105,-0.2103,-0.2101,-0.2099,-0.2065,-0.2067,-0.194,-0.1923,-0.2105,-0.2105,-0.2104,-0.2052,0,-0.1702,-0.1751,-0.1794,-0.1833,-0.1849,-0.1896,-0.1936,-0.1976,-0.2015,-0.2046,-0.2067,-0.2094,-0.2106,-0.2119,-0.2118,-0.2109,-0.2095,-0.2117,-0.2053,-0.205,-0.1921,-0.1915,-0.2103,-0.2049,-0.2048,-0.2048,-0.2047,0,-0.1693,-0.1728,-0.1766,-0.1822,-0.1836,-0.1873,-0.1925,-0.1965,-0.2018,-0.2049,-0.2076,-0.2095,-0.2109,-0.2113,-0.2095,-0.2113,-0.2089,-0.2077,-0.2074,-0.1931,-0.1915,-0.201,-0.204,-0.2041,-0.2042,-0.2042,-0.2042,0,-0.1625,-0.1697,-0.1725,-0.1745,-0.1822,-0.1853,-0.1898,-0.196,-0.1991,-0.2045,-0.2069,-0.2087,-0.2102,-0.2083,-0.207,-0.2086,-0.2034,-0.2047,-0.1902,-0.1894,-0.2007,-0.2007,-0.2008,-0.2008,-0.2008,-0.2008,-0.2008,0,-0.1573,-0.1599,-0.1703,-0.1712,-0.1752,-0.182,-0.1864,-0.1914,-0.1977,-0.1991,-0.206,-0.2056,-0.2097,-0.2081,-0.206,-0.1959,-0.202,-0.1885,-0.1862,-0.2029,-0.2032,-0.2005,-0.2005,-0.2006,-0.2007,-0.2007,-0.2007,0,-0.1482,-0.1551,-0.159,-0.1684,-0.1718,-0.1747,-0.1847,-0.1867,-0.1948,-0.1967,-0.1984,-0.2038,-0.2005,-0.2019,-0.1982,-0.1925,-0.1855,-0.1802,-0.1972,-0.1964,-0.1732,-0.1736,-0.163,-0.1624,-0.162,-0.1616,-0.1613,0,-0.1434,-0.1447,-0.1558,-0.1584,-0.1631,-0.1696,-0.1729,-0.1832,-0.1851,-0.1923,-0.1906,-0.1922,-0.1934,-0.1778,-0.1811,-0.1742,-0.1725,-0.1687,-0.1711,-0.1699,-0.1689,-0.1699,-0.1709,-0.1606,-0.1605,-0.1604,-0.1603,0,-0.1335,-0.1395,-0.1429,-0.1488,-0.1535,-0.1583,-0.1642,-0.1648,-0.1738,-0.183,-0.177,-0.1741,-0.1698,-0.1667,-0.1627,-0.1582,-0.1713,-0.1641,-0.165,-0.1673,-0.167,-0.1666,-0.1681,-0.1588,-0.159,-0.1591,-0.1592,0,-0.1264,-0.1272,-0.133,-0.1368,-0.1429,-0.144,-0.1496,-0.1506,-0.1541,-0.1631,-0.1594,-0.1611,-0.1662,-0.158,-0.1535,-0.1487,-0.147,-0.1433,-0.1453,-0.147,-0.1443,-0.1418,-0.1216,0,0,0,0,0,-0.1178,-0.1175,-0.1202,-0.1236,-0.1294,-0.1326,-0.1415,-0.1473,-0.1566,-0.1477,-0.1536,-0.1482,-0.1417,-0.1431,-0.1344,-0.1466,-0.1483,-0.1362,-0.1454,-0.1504,-0.1521,-0.1504,0,0,0,0,0,0,-0.112,-0.1141,-0.1155,-0.1116,-0.1112,-0.1157,-0.1208,-0.1276,-0.1246,-0.1343,-0.1312,-0.1382,-0.1342,-0.1426,-0.1304,-0.1309,-0.1336,-0.1384,-0.138,-0.1494,-0.151,-0.1524,-0.1512,0,0,0,0,0]},{"header":{"parameterUnit":"m.s-1","parameterCategory":2,"la1":30.2991,"la2":30.254,"lo1":-89.0895,"lo2":-89.0444,"dy":0.0017,"dx":0.0017,"nx":28,"ny":28,"refTime":"2023-10-02T09:00:00:Z","depth":"4","parameterNumber":3,"parameterNumberName":"V-component_of_CURRENTS"},"data":[0,0,0,0,0,0,0,0,0,0,0,0,0,0,0,0,0,0,0,0,0,0,0,0,0,0,0,0,0,0,0,0,0,0,0,0,0,0,0,0,0,0,0,0,0,0,0,0,0,0,0,0,0,0,0,0,0,0,-0.017,-0.017,0,-0.0121,-0.012,-0.012,-0.0072,-0.0072,-0.0071,-0.0071,0.0022,0.0024,0.0026,0,0,0,0,0,0,0,0,0,0,0,0,0,-0.0184,-0.0184,-0.017,-0.017,-0.0169,-0.0121,-0.012,-0.0119,-0.0072,-0.0072,-0.0071,-0.0071,0.0022,0.0024,0.0026,0,0,0,0,0,0,0,0,0,0,0,0,0,-0.0159,-0.0185,-0.017,-0.0141,-0.0138,-0.0121,-0.012,-0.0119,-0.0073,-0.0072,-0.0071,-0.0071,0.0021,0.0024,0.0027,0.0033,0,0,0.0036,0.0038,0,0,0,0,0,0,0,0,-0.0161,-0.0159,-0.0146,-0.0143,-0.014,-0.0104,-0.0091,-0.0067,-0.0073,-0.0096,-0.0071,-0.007,-0.0017,-0.0011,-0.0001,0.0037,0.0041,0.0037,0.0038,0.004,0.0041,0,0,0,0,0,0,0,-0.0163,-0.016,-0.0149,-0.0146,-0.0142,-0.0118,-0.0113,-0.0086,-0.0059,-0.0094,-0.009,-0.0088,-0.0015,-0.0005,0.0001,0.0042,0.0037,0.0039,0.0041,0.0042,0.0123,0.0124,0,0,0,0,0,0,-0.0175,-0.0162,-0.015,-0.0148,-0.0151,-0.0118,-0.0113,-0.0115,-0.006,-0.0052,-0.0089,-0.0086,-0.001,-0.0003,0.0005,0.0035,0.004,0.0043,0.0045,0.0123,0.0124,0.0124,0,0,0,0,0,0,-0.0176,-0.0175,-0.0152,-0.0155,-0.0151,-0.0119,-0.012,-0.0114,-0.0105,-0.0057,-0.0047,-0.0087,-0.0009,0.0,0.003,0.0038,0.0044,0.0047,0.0123,0.0123,0.0124,0.0082,0,0,0,0,0,0,-0.0177,-0.0176,-0.0186,-0.0156,-0.0151,-0.0149,-0.0121,-0.0114,-0.0105,-0.0101,-0.0052,-0.0043,-0.0008,0.0025,0.0033,0.0042,0.0049,0.0122,0.0123,0.0124,0.0083,0.0081,0.0079,0,0,0,0,0,-0.0177,-0.0199,-0.0187,-0.0186,-0.0165,-0.015,-0.0145,-0.0119,-0.0106,-0.0107,-0.0069,-0.0044,0.0035,0.0027,0.0037,0.0047,0.0122,0.0123,0.0124,0.0084,0.0081,0.0079,0,0,0,0,0,0,-0.0214,-0.0195,-0.0181,-0.0197,-0.0177,-0.0143,-0.0149,-0.0127,-0.0099,-0.0095,-0.0045,-0.0034,-0.0005,0.0025,0.0016,0.0073,0.0085,0.0087,0.0051,0.0049,0.0047,0.0045,0.0052,0,0,0,0,0,-0.0227,-0.0237,-0.0208,-0.0222,-0.0215,-0.0183,-0.0176,-0.0155,-0.0125,-0.0113,-0.0077,-0.0034,0.0004,0.0028,0.006,0.0089,0.012,0.0104,0.0102,0.01,0.0105,0.0157,0.016,0.0126,0.0126,0.0126,0,0,-0.0246,-0.0238,-0.0243,-0.023,-0.0215,-0.0206,-0.0177,-0.0172,-0.0154,-0.0107,-0.0081,-0.0048,0.0008,0.0041,0.0058,0.0069,0.0124,0.0101,0.0099,0.0105,0.0158,0.0161,0.0164,0.0126,0.0126,0.0126,0,0,-0.0286,-0.0281,-0.0297,-0.0281,-0.0263,-0.0237,-0.0238,-0.0204,-0.0181,-0.0154,-0.0111,-0.007,-0.0022,0.003,0.0062,0.0069,0.0104,0.0075,0.0073,0.0123,0.0126,0.0129,0.016,0.0166,0.0083,0.0083,0.0083,0,-0.0309,-0.0319,-0.03,-0.0304,-0.0292,-0.0253,-0.0252,-0.0224,-0.0182,-0.0158,-0.0153,-0.0063,-0.002,0.0045,0.0051,0.0066,0.0089,0.0075,0.012,0.0124,0.0128,0.0159,0.0167,0.0081,0.0081,0.0081,0.0081,0,-0.0351,-0.0352,-0.0363,-0.0347,-0.0333,-0.0331,-0.0285,-0.0265,-0.0234,-0.0194,-0.0141,-0.0083,-0.0023,-0.0003,0.0028,0.0083,0.0087,0.0102,0.0122,0.0128,0.0161,0.017,0.0078,0.0079,0.0079,0.008,0,0,-0.041,-0.0394,-0.0396,-0.0386,-0.0352,-0.0343,-0.0315,-0.0268,-0.0244,-0.0196,-0.0155,-0.008,-0.0048,-0.001,0.0036,0.0086,0.0132,0.0103,0.0106,0.0128,0.0226,0.0202,0.0209,0.015,0.0151,0.0153,0.0232,0,-0.0443,-0.0456,-0.0435,-0.0432,-0.0426,-0.0377,-0.0352,-0.0303,-0.0257,-0.021,-0.0131,-0.0084,-0.0049,-0.0025,0.0033,0.0106,0.0155,0.0109,0.0222,0.0226,0.0199,0.0219,0.0158,0.0238,0.024,0.0242,0.0243,0,-0.0482,-0.0482,-0.0491,-0.0456,-0.045,-0.0445,-0.0392,-0.0362,-0.028,-0.0243,-0.0176,-0.012,-0.0031,-0.0013,0.0122,0.0086,0.0153,0.0208,0.0213,0.0214,0.0218,0.0236,0.0259,0.0258,0.0257,0.0255,0.0254,0,-0.0522,-0.0513,-0.0521,-0.0512,-0.0475,-0.047,-0.0446,-0.0378,-0.0348,-0.0267,-0.0241,-0.0131,-0.008,0.002,0.0136,0.0129,0.0274,0.0282,0.0326,0.0324,0.0339,0.0336,0.0379,0.0379,0.0378,0.0378,0.0378,0,-0.0549,-0.0554,-0.0547,-0.0551,-0.0556,-0.0514,-0.0504,-0.0461,-0.0399,-0.036,-0.0268,-0.0216,-0.0071,0.0031,0.0132,0.0252,0.0275,0.033,0.0349,0.0318,0.0311,0.0345,0.034,0.0381,0.0381,0.038,0.0379,0,-0.058,-0.0577,-0.0588,-0.0576,-0.0578,-0.0583,-0.0558,-0.0539,-0.0481,-0.043,-0.0408,-0.0273,-0.0141,0.0001,0.0172,0.0239,0.036,0.0398,0.0345,0.0358,0.0376,0.0368,0.0452,0.0452,0.0452,0.0452,0.0452,0,-0.059,-0.0604,-0.0624,-0.064,-0.0642,-0.0646,-0.0644,-0.0591,-0.0564,-0.0461,-0.0433,-0.0301,-0.0201,0.0027,0.0165,0.0351,0.0376,0.0426,0.0413,0.0377,0.0387,0.0379,0.0371,0.0452,0.0452,0.0452,0.0452,0,-0.0609,-0.0629,-0.0641,-0.0682,-0.0701,-0.0707,-0.0698,-0.0684,-0.0607,-0.0565,-0.0434,-0.0302,-0.0152,0.0026,0.0169,0.0302,0.0386,0.0426,0.0427,0.0415,0.0378,0.0385,0.0378,0.0451,0.0451,0.0451,0.0451,0,-0.0626,-0.0646,-0.0676,-0.0704,-0.0739,-0.0747,-0.0738,-0.0683,-0.0643,-0.0521,-0.0482,-0.0304,-0.0193,0.0001,0.0134,0.0258,0.0287,0.0317,0.0324,0.0325,0.0261,0.0193,0.0232,0,0,0,0,0,-0.0631,-0.0652,-0.0687,-0.0716,-0.0756,-0.0767,-0.0757,-0.0733,-0.0672,-0.0584,-0.0523,-0.0375,-0.0152,-0.0048,0.0074,0.0111,0.0286,0.0254,0.0318,0.045,0.0451,0.0394,0,0,0,0,0,0,-0.063,-0.067,-0.0684,-0.0724,-0.0746,-0.0772,-0.0768,-0.0726,-0.0658,-0.0582,-0.0456,-0.0369,-0.015,-0.0223,0.0069,0.0108,0.0159,0.0367,0.0369,0.045,0.0451,0.0451,0.0393,0,0,0,0,0]}]]